Tracking 33195 objects as of 8-Feb-2026
HD Live streaming from Space Station
objects crossing your sky now

STARLINK-32807

Track STARLINK-32807 now!
10-day predictions
STARLINK-32807 is classified as:


NORAD ID: 62845
Int'l Code: 2025-019S
Perigee: 488.4 km
Apogee: 491.8 km
Inclination: 43.0 °
Period: 94.3 minutes
Semi major axis: 6861 km
RCS: Unknown
Launch date: January 27, 2025
Source: United States (US)
Launch site: AIR FORCE EASTERN TEST RANGE (AFETR)
Your satellite tracking list
Your tracking list is empty




NASA's NSSDC Master Catalog

Two Line Element Set (TLE):
1 62845U 25019S   26039.25002315 -.00016506  00000-0 -59116-3 0  9995
2 62845  43.0006 247.8039 0002463 270.6098 118.5009 15.27602882  5909
Source of the keplerian elements: AFSPC